This is the latest recevied weather packets stored in our database for station/object HB9CYX-13. If no packets are shown the sender has not sent any weather packets the latest 10 day(s).
| Time | Temp. | Humidity | Pressure | Rain* | Wind** | Luminosity | Snow |
|---|---|---|---|---|---|---|---|
| 1777732875 | 28.89° C | 25% | 1016.5 hPa | 0 mm | - | - | - |
| 1777732133 | 28.89° C | 25% | 1016.7 hPa | 0 mm | - | - | - |
| 1777731392 | 29.44° C | 26% | 1016.8 hPa | 0 mm | - | - | - |
| 1777730650 | 28.89° C | 27% | 1017.2 hPa | 0 mm | - | - | - |
| 1777729909 | 26.11° C | 28% | 1017.9 hPa | 0 mm | - | - | - |
| 1777729167 | 28.33° C | 28% | 1017.7 hPa | 0 mm | - | - | - |
| 1777728426 | 27.78° C | 28% | 1017.9 hPa | 0 mm | - | - | - |
| 1777727684 | 28.89° C | 28% | 1017.9 hPa | 0 mm | - | - | - |
| 1777726943 | 27.78° C | 29% | 1018.3 hPa | 0 mm | - | - | - |
| 1777726201 | 27.22° C | 30% | 1018.5 hPa | 0 mm | - | - | - |
| 1777725460 | 27.78° C | 32% | 1018.6 hPa | 0 mm | - | - | - |
| 1777724718 | 28.33° C | 30% | 1018.7 hPa | 0 mm | - | - | - |
| 1777723977 | 27.22° C | 30% | 1019 hPa | 0 mm | - | - | - |
| 1777723235 | 27.78° C | 31% | 1019.2 hPa | 0 mm | - | - | - |
| 1777722494 | 27.22° C | 30% | 1019.4 hPa | 0 mm | - | - | - |
| 1777721753 | 27.22° C | 31% | 1019.7 hPa | 0 mm | - | - | - |
| 1777721011 | 26.67° C | 30% | 1020 hPa | 0 mm | - | - | - |
| 1777720270 | 25.56° C | 32% | 1020.4 hPa | 0 mm | - | - | - |
| 1777719528 | 26.11° C | 33% | 1020.5 hPa | 0 mm | - | - | - |
| 1777718787 | 25.56° C | 32% | 1020.9 hPa | 0 mm | - | - | - |
| 1777718045 | 25.56° C | 32% | 1021 hPa | 0 mm | - | - | - |
| 1777717304 | 25° C | 33% | 1021.3 hPa | 0 mm | - | - | - |
| 1777716562 | 25° C | 33% | 1021.5 hPa | 0 mm | - | - | - |
| 1777715821 | 25.56° C | 33% | 1021.5 hPa | 0 mm | - | - | - |
| 1777715079 | 22.78° C | 34% | 1022.2 hPa | 0 mm | - | - | - |
* Rain latest hour (hover to see other rain measurements)
** Current wind speed in m/s (hover to see current wind gust speed)